FW3157 Weather Reports


time (UTC)temp
F
wind
direction
speed
knots
gust
knots
rain 1hr
in
rain 24hr
in
rain mn
in
humidity
%
barometer
mb
20260509143804 69 234 3.5 7.8 0.00 0.01 0.01 83 1013.8
20260509143526 69 219 3.5 9.6 0.00 0.01 0.01 83 1013.8
20260509142805 69 236 4.3 9.6 0.00 0.01 0.01 83 1013.8
20260509142307 69 207 2.6 7.8 0.00 0.01 0.01 82 1013.8
20260509141801 69 254 2.6 7.0 0.00 0.01 0.01 82 1013.8
20260509141301 69 214 3.5 8.7 0.00 0.01 0.01 82 1013.8
20260509140801 69 215 3.5 8.7 0.00 0.01 0.01 82 1013.8
20260509140301 69 191 3.5 8.7 0.00 0.01 0.01 81 1013.9
20260509135801 69 237 2.6 7.0 0.00 0.01 0.01 80 1013.8
20260509135301 69 245 1.7 7.8 0.00 0.01 0.01 79 1013.8
20260509134800 69 287 2.6 7.8 0.00 0.01 0.01 79 1013.8
20260509134301 69 214 2.6 7.8 0.00 0.01 0.01 77 1013.9
20260509133800 69 250 2.6 8.7 0.00 0.01 0.01 77 1013.9
20260509133300 69 236 3.5 8.7 0.00 0.01 0.01 76 1013.9
20260509132801 69 230 2.6 7.0 0.00 0.01 0.01 76 1013.9
20260509132520 69 235 3.5 8.7 0.00 0.01 0.01 75 1013.9
20260509131801 69 270 3.5 8.7 0.00 0.01 0.01 74 1013.9
20260509131516 69 237 2.6 7.8 0.00 0.01 0.01 73 1013.9
20260509130801 69 208 3.5 8.7 0.00 0.01 0.01 74 1013.8
20260509130300 69 238 3.5 8.7 0.00 0.01 0.01 73 1013.9
20260509125801 70 242 3.5 8.7 0.00 0.01 0.01 71 1014.0
20260509125752 70 260 2.6 7.8 0.00 0.01 0.01 71 1014.0
20260509124754 70 252 1.7 6.1 0.00 0.01 0.01 72 1013.9
20260509124248 70 223 2.6 7.8 0.00 0.01 0.01 72 1013.9
20260509123741 70 201 3.5 7.8 0.00 0.01 0.01 72 1014.0
20260509123236 70 221 3.5 7.8 0.00 0.01 0.01 71 1014.1
20260509122730 71 219 2.6 7.0 0.00 0.01 0.01 70 1014.1
20260509122224 71 213 2.6 7.0 0.00 0.01 0.01 71 1014.1
20260509121717 71 227 1.7 5.2 0.00 0.01 0.01 71 1014.1
20260509121211 71 266 2.6 5.2 0.00 0.01 0.01 72 1014.0
20260509120704 70 207 2.6 6.1 0.00 0.01 0.01 73 1014.0
20260509120158 70 258 2.6 6.1 0.00 0.01 0.01 71 1014.0
20260509115651 71 229 1.7 6.1 0.00 0.01 0.01 70 1014.0
20260509115412 72 267 1.7 3.5 0.00 0.01 0.01 70 1014.0
20260509114640 70 254 1.7 5.2 0.00 0.01 0.01 73 1014.1
20260509114134 70 257 2.6 6.1 0.00 0.01 0.01 71 1014.1
20260509113847 69 233 3.5 6.1 0.00 0.02 0.01 73 1014.1
20260509113121 68 259 3.5 6.1 0.00 0.02 0.01 72 1014.2
20260509112616 68 246 2.6 5.2 0.00 0.04 0.01 73 1014.1
20260509112110 68 245 3.5 5.2 0.00 0.05 0.01 73 1014.1
20260509111604 68 229 2.6 4.3 0.00 0.06 0.01 73 1014.2
20260509111059 68 252 2.6 6.1 0.00 0.06 0.01 74 1014.2
20260509110551 68 275 3.5 7.0 0.00 0.06 0.01 74 1014.2
20260509110311 68 254 3.5 7.0 0.00 0.08 0.01 74 1014.3
20260509105805 68 297 3.5 6.1 0.00 0.09 0.01 74 1014.4
20260509105033 67 253 3.5 6.1 0.00 0.10 0.01 73 1014.4
20260509104750 68 245 3.5 6.1 0.00 0.11 0.01 72 1014.4
20260509104022 68 280 4.3 6.1 0.00 0.12 0.01 73 1014.4
20260509103520 68 275 3.5 6.1 0.00 0.13 0.01 72 1014.5
20260509103009 69 292 2.6 5.2 0.00 0.13 0.01 70 1014.6
20260509102504 69 284 1.7 4.3 0.00 0.13 0.01 68 1014.6
20260509101958 69 219 1.7 3.5 0.00 0.13 0.01 68 1014.6
20260509101709 69 255 1.7 4.3 0.00 0.14 0.01 69 1014.7
20260509100945 68 211 1.7 4.3 0.00 0.14 0.01 70 1014.8
20260509100440 67 221 2.6 4.3 0.00 0.14 0.01 71 1014.9
20260509100152 67 259 2.6 6.1 0.00 0.15 0.01 70 1014.9
20260509095429 67 262 2.6 6.1 0.00 0.15 0.01 69 1014.9
20260509094922 67 271 2.6 5.2 0.00 0.16 0.01 69 1015.0
20260509094416 67 215 2.6 5.2 0.00 0.16 0.01 73 1015.0
20260509093910 66 259 2.6 5.2 0.00 0.17 0.01 72 1015.1
20260509093404 66 278 2.6 5.2 0.00 0.17 0.01 74 1015.2
20260509092858 66 305 2.6 5.2 0.00 0.17 0.01 73 1015.1
20260509092618 66 323 2.6 5.2 0.00 0.17 0.01 75 1015.1
20260509091845 66 252 2.6 6.1 0.00 0.17 0.01 78 1015.1
20260509091340 65 234 2.6 6.1 0.00 0.17 0.01 78 1015.2
20260509091051 65 246 2.6 6.1 0.00 0.17 0.01 76 1015.2
20260509090328 65 302 2.6 6.1 0.00 0.17 0.01 77 1015.2
20260509085822 65 259 2.6 4.3 0.00 0.17 0.01 80 1015.2
20260509085315 65 280 2.6 4.3 0.00 0.17 0.01 79 1015.3
20260509084810 65 277 3.5 6.1 0.00 0.17 0.01 82 1015.3
20260509084304 64 295 3.5 6.1 0.00 0.17 0.01 80 1015.3
20260509084028 65 298 2.6 4.3 0.00 0.17 0.01 81 1015.3
20260509083251 65 271 2.6 4.3 0.00 0.17 0.01 83 1015.4
20260509082746 64 282 1.7 4.3 0.00 0.17 0.01 85 1015.4
20260509082240 64 265 1.7 3.5 0.00 0.17 0.01 87 1015.4
20260509081733 63 323 1.7 3.5 0.00 0.17 0.01 86 1015.4
20260509081228 63 284 1.7 3.5 0.00 0.17 0.01 87 1015.4
20260509080722 63 309 1.7 4.3 0.00 0.17 0.01 87 1015.5
20260509080216 63 297 1.7 4.3 0.00 0.17 0.01 88 1015.5
20260509075709 63 279 2.6 4.3 0.00 0.17 0.01 88 1015.6
20260509075425 63 281 2.6 4.3 0.00 0.17 0.01 88 1015.5
20260509074657 63 324 2.6 4.3 0.00 0.17 0.01 89 1015.5
20260509074411 62 299 0.9 4.3 0.00 0.17 0.01 89 1015.5
20260509073645 62 271 0.9 2.6 0.00 0.17 0.01 91 1015.5
20260509073140 61 35 1.7 2.6 0.00 0.17 0.01 91 1015.6
20260509072634 61 23 1.7 4.3 0.00 0.17 0.01 92 1015.5
20260509072128 61 278 2.6 4.3 0.00 0.17 0.01 91 1015.6
20260509071622 60 307 1.7 4.3 0.00 0.17 0.01 92 1015.7
20260509071116 61 307 1.7 4.3 0.00 0.17 0.01 92 1015.6
20260509070611 60 283 1.7 4.3 0.00 0.17 0.01 92 1015.7
20260509070326 60 277 2.6 4.3 0.00 0.17 0.01 93 1015.7
20260509065558 60 257 2.6 4.3 0.00 0.17 0.01 92 1015.8
20260509065052 60 249 2.6 4.3 0.00 0.17 0.01 92 1015.8
20260509064546 60 264 1.7 2.6 0.00 0.17 0.01 92 1015.8
20260509064040 60 255 1.7 2.6 0.00 0.17 0.01 92 1015.7
20260509063751 60 248 1.7 3.5 0.00 0.17 0.01 92 1015.7
20260509063028 60 229 1.7 3.5 0.00 0.17 0.01 91 1015.7
20260509062521 61 266 0.9 3.5 0.00 0.17 0.01 90 1015.7
20260509062016 61 89 0.0 2.6 0.00 0.17 0.01 91 1015.7
20260509061509 61 89 0.0 0.9 0.00 0.17 0.01 92 1015.6
20260509061228 61 89 0.9 1.7 0.01 0.17 0.01 92 1015.6
20260509060459 60 89 0.9 1.7 0.01 0.17 0.01 92 1015.7
20260509055952 60 89 0.9 2.6 0.01 0.17 0.01 92 1015.7
20260509055452 60 89 1.7 3.5 0.01 0.17 0.01 92 1015.6
20260509054950 60 89 1.7 4.3 0.01 0.17 0.01 92 1015.6
20260509054450 60 106 1.7 4.3 0.01 0.17 0.01 92 1015.5
20260509053950 60 87 1.7 5.2 0.01 0.17 0.01 92 1015.5
20260509053448 60 94 1.7 5.2 0.01 0.17 0.01 92 1015.3
20260509052946 60 132 2.6 5.2 0.01 0.17 0.01 92 1015.5
20260509052446 60 95 2.6 5.2 0.01 0.17 0.01 92 1015.4
20260509051946 60 91 0.9 4.3 0.01 0.17 0.01 92 1015.4
20260509051446 60 99 0.9 4.3 0.01 0.17 0.01 92 1015.4
20260509050946 60 131 0.9 1.7 0.00 0.17 0.00 92 1015.5
20260509050446 60 116 0.0 1.7 0.00 0.17 0.00 93 1015.4
20260509045946 60 142 0.9 3.5 0.00 0.17 0.00 93 1015.3
20260509045445 60 142 1.7 3.5 0.00 0.17 0.00 93 1015.2
20260509044946 60 148 1.7 3.5 0.00 0.17 0.00 93 1015.4
20260509044446 60 140 1.7 3.5 0.00 0.17 0.00 93 1015.3
20260509044208 60 131 0.9 3.5 0.00 0.17 0.00 93 1015.2
20260509043446 60 202 0.9 2.6 0.00 0.17 0.00 93 1015.1
20260509042945 60 300 0.0 0.9 0.00 0.17 0.00 93 1015.0
20260509042445 60 300 0.0 0.0 0.00 0.17 0.00 94 1015.0
20260509041946 60 300 0.0 0.0 0.00 0.17 0.00 94 1015.0
20260509041446 60 300 0.0 0.0 0.00 0.17 0.00 94 1015.0
20260509040945 60 300 0.0 0.0 0.00 0.17 0.00 94 1015.0
20260509040445 60 300 0.0 0.9 0.00 0.17 0.00 94 1015.0
20260509035946 60 300 0.0 0.9 0.00 0.17 0.00 94 1015.0
20260509035446 60 300 0.0 0.9 0.00 0.17 0.00 94 1015.1
20260509034945 60 300 0.0 0.9 0.00 0.17 0.00 94 1015.1
20260509034445 60 300 0.0 0.9 0.00 0.17 0.00 94 1015.1
20260509033946 60 300 0.0 1.7 0.00 0.17 0.00 94 1015.1
20260509033445 60 300 0.0 1.7 0.00 0.17 0.00 94 1015.1
20260509032945 60 301 0.0 0.9 0.00 0.17 0.00 94 1015.1
20260509032445 60 301 0.0 1.7 0.00 0.17 0.00 94 1015.1
20260509031945 60 301 0.0 1.7 0.00 0.17 0.00 94 1015.1
20260509031446 60 301 0.0 0.9 0.00 0.17 0.00 94 1015.0
20260509031427 60 301 0.0 0.9 0.00 0.17 0.00 94 1015.0
20260509030439 60 301 0.0 0.9 0.00 0.17 0.00 94 1015.1
20260509030156 60 301 0.0 0.9 0.00 0.17 0.00 94 1015.1
20260509025427 60 301 0.0 0.9 0.00 0.17 0.00 94 1015.1
20260509024920 60 301 0.0 0.9 0.00 0.17 0.00 94 1015.1
20260509024415 60 301 0.0 0.9 0.00 0.17 0.00 94 1015.1
20260509023908 60 301 0.0 0.9 0.00 0.17 0.00 94 1015.0
20260509023403 60 301 0.0 0.9 0.00 0.17 0.00 94 1015.0
20260509022857 60 301 0.0 0.9 0.00 0.17 0.00 94 1015.0
20260509022350 60 301 0.0 0.9 0.00 0.17 0.00 94 1015.1
20260509021845 60 301 0.0 0.9 0.00 0.17 0.00 94 1015.2
20260509021339 60 301 0.0 0.9 0.00 0.17 0.00 94 1015.2
20260509020833 60 301 0.0 0.9 0.00 0.17 0.00 94 1015.2
20260509020327 60 301 0.0 0.9 0.00 0.17 0.00 94 1015.2
20260509015820 60 301 0.0 0.9 0.00 0.17 0.00 94 1015.2
20260509015315 60 301 0.0 0.9 0.00 0.17 0.00 94 1015.2
20260509014809 60 301 0.0 0.9 0.00 0.17 0.00 94 1015.1
20260509014305 60 301 0.0 0.9 0.00 0.17 0.00 94 1015.1
20260509014019 60 301 0.0 0.0 0.00 0.17 0.00 94 1015.2
20260509013251 60 301 0.0 0.0 0.00 0.17 0.00 94 1015.2
20260509012744 60 301 0.0 0.9 0.00 0.17 0.00 94 1015.2
20260509012238 60 301 0.0 0.9 0.00 0.17 0.00 94 1015.3
20260509011733 60 301 0.9 1.7 0.00 0.17 0.00 94 1015.3
20260509011228 60 301 0.9 1.7 0.00 0.17 0.00 94 1015.4
20260509010721 60 301 0.9 0.9 0.00 0.17 0.00 94 1015.4
20260509010215 60 301 0.9 1.7 0.00 0.17 0.00 94 1015.4
20260509005709 60 301 0.9 1.7 0.00 0.17 0.00 94 1015.4
20260509005652 60 301 0.9 1.7 0.00 0.17 0.00 94 1015.4
20260509004657 60 301 0.9 1.7 0.00 0.17 0.00 94 1015.4
20260509004151 60 301 0.0 1.7 0.00 0.17 0.00 94 1015.4
20260509003645 60 301 0.9 2.6 0.00 0.17 0.00 94 1015.4
20260509003139 60 301 1.7 2.6 0.00 0.17 0.00 94 1015.5
20260509002635 60 301 1.7 2.6 0.00 0.17 0.00 94 1015.6
20260509002127 60 301 1.7 2.6 0.00 0.17 0.00 94 1015.7
20260509001621 60 302 1.7 3.5 0.00 0.17 0.00 94 1015.7
20260509001334 60 301 1.7 3.5 0.00 0.17 0.00 94 1015.7
20260509000609 60 300 0.9 2.6 0.00 0.17 0.00 94 1015.8
20260509000325 60 287 0.9 2.6 0.00 0.17 0.00 94 1015.8
20260508235556 60 257 0.9 1.7 0.00 0.17 0.00 94 1015.9
20260508235051 60 257 0.9 1.7 0.00 0.17 0.00 94 1015.9
20260508234545 60 257 1.7 2.6 0.00 0.17 0.00 94 1016.0
20260508234519 60 257 0.9 2.6 0.00 0.17 0.00 94 1016.1
20260508233753 60 250 0.9 1.7 0.00 0.17 0.00 94 1016.0
20260508233026 60 250 0.9 1.7 0.00 0.17 0.00 93 1015.9
20260508232520 60 250 0.9 1.7 0.00 0.17 0.00 93 1015.9
20260508232015 60 250 0.9 2.6 0.00 0.17 0.00 93 1016.0
20260508231508 60 250 1.7 2.6 0.00 0.17 0.00 93 1016.1
20260508231007 60 245 0.9 2.6 0.00 0.17 0.00 93 1016.1
20260508230457 60 241 0.9 1.7 0.00 0.17 0.00 93 1016.2
20260508225951 60 241 0.9 1.7 0.00 0.17 0.00 93 1016.2
20260508225447 60 252 1.7 2.6 0.00 0.17 0.00 93 1016.2
20260508224940 60 252 1.7 2.6 0.00 0.17 0.00 93 1016.3
20260508224658 60 264 0.9 2.6 0.00 0.17 0.00 93 1016.3
20260508223927 60 250 0.9 1.7 0.00 0.17 0.00 93 1016.3
20260508223421 60 250 0.9 1.7 0.00 0.17 0.00 93 1016.3
20260508223138 60 250 0.9 1.7 0.00 0.17 0.00 93 1016.3
20260508222409 60 250 0.9 1.7 0.00 0.17 0.00 93 1016.4
20260508221903 60 250 0.9 1.7 0.00 0.17 0.00 93 1016.5
20260508221355 60 250 0.9 1.7 0.00 0.17 0.00 93 1016.5
20260508220848 60 247 0.0 1.7 0.00 0.17 0.00 93 1016.6
20260508220345 60 247 0.0 1.7 0.00 0.17 0.00 93 1016.6
20260508215837 60 247 0.0 1.7 0.00 0.17 0.00 93 1016.6
20260508215553 60 247 0.9 1.7 0.00 0.17 0.00 93 1016.5
20260508214825 60 246 0.9 1.7 0.00 0.17 0.00 93 1016.5
20260508214318 60 246 0.9 2.6 0.00 0.17 0.00 93 1016.5
20260508213812 60 247 0.9 2.6 0.00 0.17 0.00 93 1016.5
20260508213307 60 246 0.9 2.6 0.00 0.17 0.00 93 1016.5
20260508212800 60 246 0.9 2.6 0.00 0.17 0.00 93 1016.6
20260508212255 60 246 0.9 2.6 0.00 0.17 0.00 93 1016.5
20260508212016 60 245 0.9 2.6 0.00 0.17 0.00 93 1016.6
20260508211242 60 245 0.9 3.5 0.00 0.17 0.00 93 1016.6
20260508211007 60 242 1.7 3.5 0.00 0.17 0.00 93 1016.7
20260508210458 60 256 0.9 2.6 0.00 0.17 0.00 92 1016.9
20260508205727 60 308 0.9 1.7 0.00 0.17 0.17 93 1016.7
20260508205656 60 308 0.9 1.7 0.00 0.17 0.17 93 1016.9
20260508204934 60 310 0.9 3.5 0.00 0.17 0.17 93 1016.9
20260508204207 60 310 1.7 3.5 0.00 0.17 0.17 93 1016.7
20260508203701 60 259 0.9 2.6 0.00 0.17 0.17 93 1016.9
20260508203154 60 265 1.7 3.5 0.00 0.17 0.17 93 1016.6
20260508202649 60 263 0.9 3.5 0.00 0.17 0.17 93 1016.9
20260508202143 60 238 0.9 2.6 0.00 0.17 0.17 92 1016.7
20260508201637 60 275 1.7 3.5 0.00 0.17 0.17 92 1016.6
20260508201131 60 268 1.7 3.5 0.00 0.17 0.17 92 1017.0
20260508200625 60 283 1.7 4.3 0.00 0.17 0.17 92 1016.7
20260508200118 60 282 1.7 4.3 0.00 0.17 0.17 92 1017.1
20260508195612 60 276 1.7 4.3 0.00 0.17 0.17 92 1016.9
20260508195107 61 300 1.7 4.3 0.00 0.17 0.17 92 1016.9
20260508194601 61 273 1.7 4.3 0.00 0.17 0.17 92 1016.9
20260508194056 61 271 1.7 4.3 0.00 0.17 0.17 92 1017.0
20260508193549 61 281 1.7 4.3 0.00 0.17 0.17 92 1016.7
20260508193043 61 310 1.7 3.5 0.00 0.17 0.17 92 1016.6
20260508192537 61 310 0.9 3.5 0.00 0.17 0.17 92 1016.5
20260508192030 61 274 0.9 2.6 0.00 0.17 0.17 92 1016.5
20260508191525 61 274 0.9 1.7 0.00 0.17 0.17 92 1016.5
20260508191019 61 274 0.9 2.6 0.00 0.17 0.17 92 1016.5
20260508190513 61 274 0.9 2.6 0.00 0.17 0.17 92 1016.5
20260508190007 61 274 0.9 2.6 0.00 0.17 0.17 92 1016.5
20260508185500 61 274 1.7 2.6 0.00 0.17 0.17 92 1016.4
20260508184955 61 277 1.7 3.5 0.00 0.17 0.17 92 1016.4
20260508184449 61 308 1.7 3.5 0.00 0.17 0.17 92 1016.1
20260508183943 61 303 1.7 4.3 0.00 0.17 0.17 91 1016.0
20260508183437 61 264 1.7 4.3 0.00 0.17 0.17 91 1016.1
20260508183147 61 282 2.6 5.2 0.00 0.17 0.17 91 1016.1
20260508182650 61 293 2.6 5.2 0.00 0.17 0.17 91 1016.2
20260508181918 61 269 2.6 5.2 0.00 0.17 0.17 91 1016.1
20260508181413 61 274 2.6 6.1 0.00 0.17 0.17 91 1015.8
20260508180906 61 286 2.6 6.1 0.00 0.17 0.17 91 1015.9
20260508180401 61 250 2.6 5.2 0.00 0.17 0.17 91 1015.9
20260508175854 61 276 2.6 5.2 0.00 0.17 0.17 92 1015.8
20260508175348 61 287 1.7 4.3 0.00 0.17 0.17 92 1015.7
20260508174843 61 288 1.7 3.5 0.00 0.17 0.17 92 1015.5
20260508174337 61 290 1.7 4.3 0.00 0.17 0.17 92 1015.5
20260508173831 61 307 1.7 4.3 0.00 0.17 0.17 91 1015.5
20260508173327 61 309 1.7 4.3 0.00 0.17 0.17 91 1015.5
20260508172826 61 266 1.7 4.3 0.00 0.17 0.17 91 1015.5
20260508172327 61 326 2.6 4.3 0.00 0.17 0.17 91 1015.4
20260508171825 61 283 2.6 5.2 0.00 0.17 0.17 90 1015.4
20260508171325 61 281 2.6 5.2 0.00 0.17 0.17 90 1015.4
20260508171042 61 293 2.6 4.3 0.00 0.17 0.17 90 1015.4
20260508170323 61 281 2.6 5.2 0.00 0.17 0.17 90 1015.3
20260508165820 62 277 1.7 5.2 0.00 0.17 0.17 89 1015.3
20260508165319 62 266 1.7 5.2 0.00 0.17 0.17 90 1015.4
20260508164818 62 236 1.7 4.3 0.00 0.17 0.17 90 1015.4
20260508164806 62 277 1.7 4.3 0.00 0.17 0.17 90 1015.4
20260508164049 62 256 1.7 5.2 0.00 0.17 0.17 90 1015.4
20260508163319 62 257 1.7 5.2 0.00 0.17 0.17 90 1015.4
20260508162818 62 255 1.7 3.5 0.00 0.17 0.17 90 1015.4
20260508162319 62 288 1.7 4.3 0.00 0.17 0.17 89 1015.3
20260508161819 62 266 1.7 4.3 0.00 0.17 0.17 89 1015.3
20260508161319 62 305 0.9 3.5 0.00 0.17 0.17 88 1015.1
20260508160818 62 257 1.7 4.3 0.00 0.17 0.17 88 1015.3
20260508160542 62 227 1.7 4.3 0.00 0.17 0.17 88 1015.4
20260508160039 62 270 0.9 2.6 0.00 0.17 0.17 87 1015.5
20260508155319 62 271 0.9 2.6 0.00 0.17 0.17 87 1015.2
20260508154819 62 271 0.9 1.7 0.00 0.17 0.17 87 1015.2
20260508154318 62 271 0.9 1.7 0.00 0.17 0.17 86 1015.1
20260508153818 63 271 0.9 2.6 0.00 0.17 0.17 86 1015.2
20260508153318 63 271 0.9 2.6 0.00 0.17 0.17 86 1015.3
20260508152814 63 271 0.9 1.7 0.00 0.17 0.17 85 1015.2
20260508152314 63 271 0.0 0.9 0.00 0.17 0.17 84 1015.3
20260508151814 63 271 0.9 2.6 0.00 0.17 0.17 83 1015.3
20260508151541 63 271 0.9 2.6 0.00 0.17 0.17 83 1015.2
20260508150815 63 271 0.9 2.6 0.00 0.17 0.17 83 1015.3
20260508150314 63 271 1.7 2.6 0.00 0.17 0.17 82 1015.4
20260508145815 63 271 0.9 4.3 0.00 0.17 0.17 83 1015.2
20260508145315 63 284 1.7 4.3 0.00 0.17 0.17 83 1015.2
20260508144812 63 281 1.7 4.3 0.00 0.17 0.17 84 1015.5
20260508144532 63 261 2.6 4.3 0.00 0.17 0.17 84 1015.5